RH
100 100 99 98 96 94 91 87 85 84 82 80 78 76 77 77 74 73 73 72 72 74 76 77 79 83 82 80 82 82 82 87 92 93 89 82 79 79 79 80 83 87 87 84 83 81 76 73 70 68 69 76 83 86 82 76 71 69 69 67 64 62 63
101 101 101 101 100 99 97 94 92 90 88 84 83 81 79 80 79 77 76 75 74 74 77 79 78 77 76 77 80 84 88 93 97 99 99 93 85 85 87 85 87 91 90 88 85 81 80 78 71 62 56 60 70 75 72 67 63 61 61 62 61 63 64
100 101 102 101 101 101 99 99 98 95 94 91 87 86 85 84 84 85 86 85 83 79 77 79 80 80 80 80 83 89 94 98 99 100 101 95 82 79 87 91 92 94 93 90 87 83 82 80 75 67 58 58 67 73 71 65 58 54 51 48 49 53 58
99 100 101 100 100 100 99 100 100 99 97 95 93 91 91 90 91 92 92 91 92 91 86 83 82 79 77 78 80 83 87 95 100 96 92 90 84 79 84 91 96 98 98 94 87 82 80 77 75 71 64 62 68 74 77 71 59 51 47 42 42 44 48
100 100 100 100 100 100 100 100 99 100 99 99 99 97 96 96 95 94 92 89 89 91 93 94 92 88 85 83 79 75 76 79 82 85 90 96 98 95 93 91 94 99 100 98 95 87 81 77 76 74 68 62 64 71 80 80 67 52 46 44 44 43 45
100 100 100 100 100 99 100 100 100 100 99 99 100 100 99 99 97 96 94 92 90 87 87 90 92 96 96 90 83 83 82 72 66 78 96 101 99 100 101 94 90 94 99 100 100 96 90 86 82 78 69 58 60 73 81 78 68 56 48 47 48 48 48
100 100 100 100 100 100 100 100 100 100 100 100 100 99 100 100 99 99 98 98 98 95 92 88 86 93 101 97 94 97 98 91 84 88 98 102 98 97 100 100 95 95 99 100 99 97 94 90 83 75 65 56 64 81 86 79 73 63 50 45 49 51 49
100 100 100 100 100 100 100 100 100 100 100 100 100 100 100 100 100 100 99 100 100 99 100 97 89 87 92 96 99 100 99 100 100 98 93 94 97 97 97 100 100 99 99 99 100 99 95 90 83 70 59 61 76 89 87 81 79 71 56 48 50 52 52
100 100 100 100 100 100 100 100 100 100 100 100 100 100 100 100 100 100 100 100 99 98 100 102 99 93 86 83 89 97 100 98 100 101 91 85 91 98 100 99 100 101 100 97 96 97 96 97 91 74 63 70 80 81 77 78 81 78 67 62 64 63 62
100 100 100 100 100 100 100 100 100 100 100 100 100 100 100 100 100 100 100 100 100 100 100 100 100 99 93 80 74 85 97 98 99 97 88 83 90 98 100 99 98 99 100 99 96 92 94 98 91 78 75 75 72 74 81 83 83 78 73 77 84 79 70
100 100 100 100 100 100 100 99 99 100 100 100 100 100 100 100 100 100 100 100 100 100 100 101 99 98 99 89 71 68 78 91 97 92 83 84 93 97 97 97 98 99 99 100 98 94 95 95 86 80 83 80 76 82 87 82 80 84 83 87 92 83 70
98 98 97 97 98 98 99 99 99 100 101 100 100 100 100 100 100 100 100 100 100 100 99 101 100 99 100 96 79 64 61 70 81 81 79 86 93 95 96 97 99 100 99 100 100 98 96 91 82 79 83 86 85 85 83 81 88 93 89 87 87 80 70
94 95 96 96 96 97 98 99 100 101 101 100 100 100 100 100 100 100 100 100 99 101 100 99 100 100 99 100 95 79 62 58 64 70 77 87 92 95 98 99 99 100 98 98 99 100 98 96 92 87 86 87 86 83 84 92 96 94 92 92 87 79 73
92 93 95 96 97 99 99 99 100 101 101 100 100 100 99 100 100 99 100 101 99 99 100 99 100 100 99 100 101 88 64 54 62 72 75 79 85 91 97 99 97 94 90 88 92 99 100 98 96 91 89 91 94 92 93 96 95 93 96 98 91 84 85
93 92 91 94 98 101 100 99 100 100 100 100 100 100 99 99 100 100 99 100 100 99 100 100 100 100 100 99 102 96 76 59 60 69 71 73 80 85 91 98 98 90 82 79 85 96 98 93 88 85 85 91 95 96 96 96 96 96 98 99 98 97 98
92 90 89 93 99 101 99 99 100 100 100 100 99 100 101 99 98 100 100 99 100 100 100 100 99 100 100 99 99 102 95 78 65 63 63 66 71 76 85 95 95 87 82 82 87 94 97 93 89 85 83 85 87 88 91 96 99 99 98 97 97 97 96
89 88 92 97 100 100 100 99 100 100 100 100 99 98 101 99 96 97 99 99 99 100 100 100 100 100 100 101 99 100 101 97 88 81 76 71 67 69 79 88 89 85 88 92 95 98 99 96 89 83 80 82 85 86 89 96 100 97 93 91 90 87 85
88 87 95 101 100 99 100 100 99 100 100 99 98 98 100 100 97 97 99 99 99 100 99 99 100 100 99 100 100 100 100 101 100 98 96 92 83 76 74 79 84 87 91 96 97 96 93 87 80 76 75 77 79 82 86 94 99 98 94 94 90 82 81
94 91 94 100 101 99 100 100 99 100 101 99 95 95 98 99 98 99 99 99 100 100 98 98 100 100 99 99 100 101 101 100 100 100 99 100 99 87 72 71 81 88 90 91 91 88 82 75 71 71 73 75 75 75 77 81 88 95 99 100 93 81 83
100 97 94 97 100 100 100 100 100 99 100 98 95 94 97 99 99 100 100 99 100 100 97 98 101 99 98 99 98 99 101 99 100 101 99 100 102 88 68 66 76 83 86 86 86 84 81 77 73 72 72 74 74 72 69 69 74 82 92 100 97 86 81
100 100 95 94 99 101 100 100 100 100 99 98 97 97 99 100 99 100 100 100 101 99 94 95 100 100 99 99 97 98 101 100 99 100 99 100 94 75 59 64 73 79 83 85 85 86 84 81 78 76 73 72 71 65 61 64 68 71 81 96 101 91 81
99 101 99 97 97 97 98 100 100 100 100 99 98 98 100 100 99 99 100 99 101 101 94 90 96 100 100 99 97 98 99 100 100 100 100 102 94 72 59 65 73 77 83 86 85 83 81 77 74 73 71 69 65 58 58 67 73 75 85 98 100 93 83
99 100 100 99 94 89 91 97 99 99 100 99 98 98 100 100 100 100 101 99 100 101 96 91 95 100 100 100 100 100 100 99 101 99 95 91 83 69 62 65 71 74 76 77 77 76 72 69 68 67 65 61 58 59 65 75 82 86 94 102 98 91 85
100 100 100 100 95 86 83 87 93 97 97 94 94 97 100 101 99 100 101 100 100 101 97 93 93 94 94 95 96 98 100 99 100 100 94 82 70 60 59 62 64 65 66 67 68 67 67 69 71 70 67 64 67 74 81 87 92 94 97 100 98 91 86
99 99 100 100 99 92 82 81 89 93 88 85 88 92 96 99 98 98 100 100 99 101 100 97 96 95 95 97 97 98 100 99 98 100 100 95 87 78 72 69 65 65 68 68 65 65 72 80 81 78 76 78 84 93 96 96 98 98 94 94 97 94 88
99 100 100 99 99 98 89 84 93 95 84 78 82 85 88 94 95 94 96 97 96 97 97 98 99 99 98 99 99 99 100 100 100 100 99 100 100 97 94 91 86 84 87 86 81 81 86 88 86 87 90 92 92 95 98 99 100 99 92 89 94 95 90
99 100 101 99 98 98 90 85 91 94 85 79 84 88 89 94 96 92 92 95 95 93 93 96 99 99 98 99 100 100 100 100 100 100 100 100 100 100 100 100 99 98 99 98 96 96 98 95 94 96 99 98 95 95 98 98 96 94 92 92 96 97 89
100 99 101 100 99 98 94 87 87 90 91 91 95 97 96 98 99 96 95 98 100 97 97 99 100 100 99 100 100 100 100 100 100 99 100 99 100 100 100 99 100 100 100 100 100 100 99 99 99 100 100 100 99 98 97 94 91 93 97 99 100 97 90
100 100 100 100 100 100 99 96 93 93 98 100 99 100 100 100 100 99 99 100 101 100 100 100 100 100 99 99 100 100 99 100 100 100 100 100 100 100 99 98 98 98 97 97 99 100 99 99 99 99 100 100 100 98 96 95 95 98 100 100 100 99 95
100 100 100 100 100 99 99 100 100 99 100 100 98 98 100 100 100 100 100 100 100 100 100 100 100 100 100 99 100 101 100 100 100 100 99 98 97 96 96 95 96 96 95 95 95 96 98 99 100 100 100 100 100 99 98 98 100 99 98 99 100 99 97
100 100 100 100 100 100 100 100 100 101 101 100 98 99 100 100 100 100 99 99 100 100 100 100 100 100 100 100 100 100 100 101 101 101 100 99 97 96 95 94 93 93 94 95 95 95 95 97 99 100 99 99 100 100 99 100 101 100 99 100 100 98 97
100 100 101 101 100 100 100 99 99 100 101 100 99 100 100 100 100 100 99 100 101 100 100 100 100 100 100 100 100 100 100 101 100 100 99 98 97 98 98 98 98 97 95 94 94 95 96 97 99 100 99 98 98 99 100 100 100 99 100 100 99 98 99
98 98 99 100 101 101 101 100 100 100 100 101 100 100 100 100 100 100 100 101 101 100 100 100 100 100 100 100 100 100 99 99 98 97 95 93 91 89 89 90 92 94 96 96 96 97 99 99 99 100 100 99 98 97 98 100 100 99 100 100 99 98 98
91 94 94 95 98 100 101 101 101 101 101 101 99 98 99 100 100 100 100 101 101 100 100 100 100 100 99 98 96 92 90 88 86 85 87 89 90 87 85 83 82 83 87 92 95 98 100 100 99 100 100 100 98 97 98 100 100 100 99 100 100 99 99
84 88 91 91 93 96 99 101 102 102 102 99 97 97 98 99 100 100 100 100 100 100 100 100 101 99 97 93 89 85 82 78 73 70 69 73 80 86 88 86 82 79 80 86 92 96 98 101 100 99 100 100 99 98 99 100 100 100 100 100 100 99 99
82 85 89 90 91 92 95 98 99 100 100 99 97 97 96 97 99 101 100 99 100 100 100 101 100 98 95 92 91 91 88 81 71 62 57 59 70 84 91 90 86 83 84 90 96 97 97 100 101 99 99 100 99 98 99 99 99 100 100 99 100 100 99
Wind_Speed
24 24 23 24 24 24 24 25 25 25 25 26 26 26 27 26 27 27 27 28 30 33 35 37 36 35 34 33 33 35 36 35 34 34 34 34 33 33 33 33 33 34 37 38 35 34 33 32 33 32 29 25 24 24 23 23 23 24 24 26 28 30 33
26 25 25 24 24 24 25 25 25 25 26 27 27 27 27 27 26 27 28 28 29 30 32 34 35 36 36 35 35 36 36 35 34 34 33 34 35 35 34 34 33 33 35 36 34 35 35 33 32 35 34 32 31 29 28 29 29 28 28 29 29 31 32
25 25 26 26 26 25 25 25 25 26 27 27 28 29 28 28 27 27 28 28 28 29 30 32 34 34 33 32 33 34 33 32 32 33 33 34 34 34 35 35 34 33 34 35 34 33 35 34 32 33 33 32 30 30 30 32 35 34 32 33 33 34 34
24 25 25 25 26 26 26 26 26 26 27 27 28 29 30 30 29 29 29 29 28 28 29 31 33 34 33 33 34 36 35 34 33 32 32 33 32 31 32 33 34 34 33 34 35 34 34 35 33 33 33 31 29 28 29 32 36 38 37 36 36 37 37
24 24 24 24 25 25 26 26 26 26 27 27 28 29 29 30 30 30 30 30 31 31 31 31 31 32 33 33 35 36 36 36 35 34 33 33 33 31 31 31 32 33 34 33 34 35 34 34 34 33 34 32 30 29 30 31 34 37 38 38 37 37 38
23 23 24 24 24 24 24 25 25 27 27 28 28 29 29 30 30 31 30 30 31 32 33 34 33 32 31 31 33 33 31 32 34 35 34 32 30 29 29 31 31 32 34 35 35 35 35 33 33 34 35 35 32 31 31 32 34 36 38 39 38 37 36
22 22 22 22 23 22 23 23 24 25 26 27 28 29 30 30 30 31 31 31 31 31 32 34 35 35 33 33 34 32 28 27 30 35 37 33 30 28 26 27 31 31 31 32 34 35 35 34 34 34 35 36 33 31 32 34 34 35 37 39 39 37 35
21 20 20 20 21 21 22 23 23 24 23 24 26 27 29 30 30 31 31 32 32 32 33 33 34 36 36 36 38 36 30 26 25 31 37 37 35 32 26 23 26 30 31 31 32 33 34 33 34 34 35 35 32 31 34 34 33 34 35 36 37 36 33
20 19 18 19 19 20 20 21 22 22 21 21 22 23 25 26 27 29 30 30 31 31 33 34 34 36 36 36 39 40 37 31 26 28 35 38 37 34 30 25 21 24 29 32 32 33 33 31 32 33 34 34 32 33 35 33 32 32 32 31 33 33 32
18 17 18 19 19 19 19 20 20 21 20 19 20 21 23 25 25 25 26 27 27 28 28 30 31 33 34 33 36 41 43 39 33 31 35 38 35 32 31 28 24 22 24 28 31 32 31 31 32 33 33 33 33 33 32 31 30 31 30 29 30 31 31
17 16 17 19 20 19 19 20 19 19 19 18 17 19 24 26 27 26 26 26 27 27 26 26 27 27 28 29 31 37 43 45 41 38 37 36 34 32 31 29 28 26 24 24 28 30 30 31 33 33 33 34 33 31 30 30 30 29 28 27 28 31 32
16 15 16 19 21 20 19 20 18 17 18 18 17 18 22 26 29 29 29 28 28 29 29 29 28 27 26 26 26 29 35 41 44 42 37 33 32 32 32 30 30 30 27 25 26 28 29 30 32 34 33 32 30 28 27 29 28 27 27 27 27 29 31
17 15 17 20 22 22 21 20 17 15 16 16 16 17 20 24 27 29 29 29 29 29 30 31 31 30 28 25 23 24 27 31 36 38 35 32 30 30 30 31 32 32 31 28 27 29 29 26 27 28 27 25 25 25 27 27 26 26 27 27 26 26 26
18 16 18 20 22 22 21 19 16 15 15 16 16 16 18 22 26 28 30 30 30 29 30 32 32 31 29 27 23 21 21 25 30 34 33 31 29 29 28 29 31 32 31 30 30 31 30 24 20 21 21 20 21 22 23 23 23 25 26 25 24 24 25
19 18 19 20 20 20 20 18 16 15 15 15 15 15 17 20 23 26 28 30 29 28 28 29 31 31 28 27 25 21 18 23 28 31 31 30 29 29 28 27 29 29 30 30 31 31 30 25 22 22 22 22 21 20 20 19 19 19 20 20 19 20 21
19 18 19 18 18 20 20 17 15 15 15 15 14 15 16 18 20 22 24 25 25 26 25 26 28 29 27 25 24 21 19 21 26 30 31 31 31 30 27 26 26 26 27 29 29 28 27 27 25 24 23 23 24 24 23 21 19 17 16 16 17 18 19
19 17 17 17 18 21 23 20 16 15 15 14 14 15 16 18 19 20 22 22 22 22 23 23 24 24 23 22 21 19 19 20 23 27 30 31 31 30 27 25 24 24 25 27 27 25 24 25 24 23 22 22 23 23 22 22 23 21 18 17 17 19 20
19 16 16 17 19 21 23 22 19 17 16 14 14 15 16 18 18 19 21 21 20 21 21 20 20 19 19 20 18 15 16 19 21 24 28 30 30 29 28 26 23 23 23 24 25 24 23 23 22 21 21 20 20 20 21 22 24 23 21 20 20 20 20
18 16 14 17 19 20 22 23 21 20 19 17 16 15 15 16 16 17 18 19 20 22 21 18 18 17 16 16 14 11 13 16 20 24 27 29 29 29 29 27 23 22 22 23 24 24 23 22 22 21 20 19 19 19 20 22 24 23 23 23 22 21 20
16 16 13 15 19 20 20 23 23 20 18 17 16 15 13 14 15 16 18 18 19 20 18 16 17 17 14 13 12 10 11 13 19 23 25 27 30 31 29 26 23 21 20 21 22 22 22 23 23 23 24 23 22 22 22 23 24 24 25 26 24 22 21
15 15 13 15 20 20 20 21 22 21 17 15 16 15 13 13 14 15 17 19 20 19 16 15 16 18 14 12 12 11 11 12 18 22 23 25 29 29 26 23 21 20 19 20 20 21 21 23 24 25 26 26 25 24 24 25 25 26 27 28 27 23 21
15 16 16 17 19 19 18 17 18 21 18 14 14 16 16 15 15 15 16 15 17 20 17 14 15 15 12 9 10 11 11 11 16 20 22 24 25 24 22 21 21 20 20 20 21 21 22 23 24 25 26 26 26 25 24 23 24 25 26 27 26 23 20
16 18 20 20 18 16 16 16 16 18 18 15 14 15 16 17 16 16 15 13 13 17 15 11 12 14 12 8 8 10 10 10 13 17 19 21 21 21 20 21 22 22 22 22 23 23 24 25 25 25 25 25 24 22 21 21 21 22 23 25 25 22 19
17 20 22 22 20 18 17 16 16 18 19 18 17 16 15 16 17 16 15 12 11 12 12 9 11 15 16 14 14 14 14 14 13 15 15 15 16 19 20 22 23 25 24 25 25 26 27 27 25 23 21 20 18 18 18 20 20 18 19 21 23 22 20
16 20 22 23 23 22 19 18 19 20 20 20 19 18 16 16 16 16 16 13 10 10 10 9 11 13 15 16 16 14 14 14 13 14 15 15 16 18 19 22 24 24 24 25 26 27 27 25 22 19 17 16 16 16 18 19 20 20 18 19 21 22 20
18 21 22 23 24 24 23 22 21 21 22 22 22 19 18 17 15 15 15 14 12 12 13 13 14 15 15 15 14 11 10 10 9 10 13 16 17 19 20 21 22 22 23 25 26 27 27 26 24 21 19 19 19 19 19 20 21 21 20 19 21 22 21
20 21 21 23 24 25 25 25 23 23 25 25 24 23 21 19 18 16 16 15 15 14 13 11 12 12 12 12 11 10 10 11 11 11 12 13 15 17 19 19 19 20 22 23 24 24 23 24 26 27 26 24 22 21 21 20 20 20 21 21 22 22 21
21 20 20 21 22 23 25 26 24 24 25 25 25 24 22 21 20 19 18 17 17 16 13 9 8 9 10 10 8 8 10 12 13 14 14 14 15 17 18 19 20 21 22 22 22 23 22 22 25 28 29 27 23 22 22 21 19 19 21 22 22 22 22
18 18 18 20 20 20 22 24 24 24 24 25 25 23 21 20 21 20 19 18 16 14 12 9 8 9 10 9 7 7 8 9 10 11 12 13 14 15 17 18 20 22 23 24 25 26 25 22 23 25 26 26 24 23 21 20 19 20 21 21 21 21 20
14 15 16 18 19 19 19 21 23 24 25 26 26 23 19 17 18 17 17 16 14 12 12 11 9 9 9 8 8 8 8 8 9 9 10 11 12 13 14 16 17 18 21 23 25 26 25 23 22 24 25 25 25 24 22 21 21 21 21 22 22 20 19
10 12 15 17 18 19 20 21 22 24 25 25 24 21 17 15 16 16 15 15 14 12 12 10 7 6 6 6 6 6 6 7 7 8 8 9 10 11 13 14 15 16 18 19 20 23 24 23 22 23 26 26 25 24 24 23 23 22 21 23 22 19 18
9 11 13 14 15 17 20 21 22 22 22 22 21 18 15 13 14 14 14 14 12 10 8 7 5 3 3 3 3 3 4 3 4 4 5 5 6 7 8 10 12 13 15 17 18 20 23 24 23 23 26 27 25 24 25 25 24 23 23 23 21 18 17
10 12 12 12 12 14 16 18 19 19 19 19 18 15 12 12 12 13 12 11 9 7 5 4 3 2 2 2 3 4 4 4 5 5 6 6 6 6 7 8 8 9 11 13 16 18 21 23 24 23 26 29 27 25 25 25 25 25 25 24 22 19 17
11 12 12 11 11 13 14 15 15 16 16 17 15 13 10 10 11 11 10 9 8 5 3 2 3 3 4 6 6 7 8 8 8 8 8 8 8 8 8 8 9 9 9 10 11 14 17 21 23 24 27 32 30 26 25 26 25 26 27 26 24 21 19
14 13 12 12 11 12 12 13 13 13 14 14 14 12 10 10 10 10 8 7 6 5 3 2 3 4 5 7 8 9 11 11 11 11 10 10 9 9 9 10 10 10 10 10 10 11 13 18 21 22 26 32 32 28 26 26 25 26 27 27 25 23 20
17 15 14 12 11 10 10 10 11 13 13 13 13 12 11 10 9 7 7 6 6 6 5 4 2 3 4 6 9 10 11 12 12 12 11 10 9 9 9 10 11 10 10 9 8 9 10 13 17 19 24 31 32 29 26 26 25 26 27 27 26 24 22
Wind_Direction
290 288 285 283 282 280 278 276 274 271 269 268 266 264 264 263 260 258 258 256 251 248 248 250 251 248 247 248 252 254 253 252 251 253 251 247 245 245 245 246 249 254 256 255 254 254 251 243 241 248 253 255 257 256 256 260 262 260 256 254 252 251 252
292 290 287 284 281 279 278 275 273 271 268 266 265 264 262 262 260 258 257 256 253 248 247 249 250 251 251 252 253 254 253 252 251 251 251 247 243 242 241 242 246 251 254 256 255 255 256 253 250 254 256 257 259 261 261 261 262 263 263 261 259 255 251
298 296 292 288 283 279 277 275 272 270 268 266 264 264 262 260 259 258 256 255 255 252 248 248 249 249 248 247 247 248 247 247 246 247 248 249 247 245 243 240 243 249 252 254 255 254 255 256 256 257 258 260 262 264 265 263 262 265 270 270 266 263 258
305 303 299 294 288 283 279 275 273 271 269 267 265 263 263 261 258 257 255 252 252 252 250 249 249 249 248 246 247 247 245 243 243 243 247 252 253 252 248 242 240 245 250 253 255 254 254 255 256 257 259 261 263 263 264 264 263 266 271 273 271 267 264
311 308 305 300 294 289 283 277 273 271 268 267 266 264 263 262 259 258 257 253 249 247 247 247 248 248 249 249 249 249 247 245 241 241 247 251 251 253 256 250 241 240 245 249 252 253 253 254 255 256 258 261 264 262 261 262 263 264 268 271 272 268 265
316 311 308 305 301 296 290 284 278 273 269 266 264 263 262 261 260 259 259 257 255 251 248 246 245 247 249 248 248 249 250 249 241 240 247 248 244 247 255 256 247 240 241 245 248 251 253 253 253 254 257 260 263 260 258 259 261 262 264 268 270 267 264
317 313 311 309 307 304 299 293 287 280 275 270 266 264 261 260 259 258 257 257 257 256 254 251 245 244 245 244 244 245 246 246 240 240 244 244 240 244 253 255 250 245 244 247 248 250 252 252 254 256 257 260 262 259 257 259 259 259 260 263 266 266 264
318 314 314 315 313 311 307 301 295 290 284 279 273 268 265 263 260 259 258 256 255 254 255 255 250 245 242 239 240 242 242 241 237 236 237 237 239 247 256 258 252 246 246 248 249 251 253 255 257 258 259 261 260 257 257 257 257 258 259 261 264 266 265
318 315 318 321 320 316 312 307 303 302 298 292 286 278 272 269 264 262 261 259 259 257 254 254 253 251 247 240 236 239 242 244 240 233 232 234 239 249 256 257 252 247 248 250 251 253 255 256 257 257 258 258 256 254 256 257 259 263 266 266 266 267 265
317 318 324 327 326 322 317 313 312 312 310 304 296 287 280 277 273 270 269 267 265 264 261 258 255 254 254 249 239 236 238 242 239 233 232 237 243 250 254 252 248 248 251 252 253 255 256 256 257 256 255 255 256 255 256 258 262 266 268 268 267 267 266
316 320 326 327 324 322 316 312 314 316 314 312 302 286 278 279 279 276 276 276 274 273 272 270 268 264 261 257 247 239 236 237 236 233 233 239 244 248 249 249 250 253 255 254 254 254 255 255 255 256 255 255 256 254 255 261 263 264 266 266 267 268 268
317 318 322 322 322 320 314 309 311 312 310 311 305 287 274 274 278 279 279 279 279 280 279 277 277 276 273 268 260 249 240 237 236 233 232 236 242 246 247 248 252 256 256 255 254 253 255 257 257 256 255 253 253 254 259 262 258 259 264 269 270 270 269
321 319 319 321 323 322 317 314 313 310 305 304 302 291 277 271 274 279 283 283 283 285 286 281 278 278 279 279 272 261 250 241 235 230 230 235 241 246 248 248 251 254 255 254 254 254 256 256 253 252 252 251 254 257 257 255 254 259 266 270 272 272 270
325 322 320 322 325 325 322 321 320 312 303 298 295 289 282 277 275 278 284 288 289 290 290 288 284 281 281 282 279 269 252 240 231 228 231 239 242 244 246 249 250 252 253 253 253 254 255 252 248 250 252 250 251 253 250 251 259 266 267 270 275 275 271
325 322 321 324 330 331 327 326 326 321 312 305 296 287 282 279 278 279 283 288 291 293 293 292 289 287 286 283 280 275 257 237 231 233 238 241 243 245 246 247 248 251 252 251 249 250 252 252 252 256 256 252 253 259 262 263 268 269 266 269 274 274 271
327 325 325 330 337 337 333 332 332 328 323 319 307 294 286 282 278 278 281 284 286 289 293 295 292 289 290 286 281 277 266 245 236 238 242 243 243 246 247 246 246 249 251 250 249 249 250 252 255 258 257 255 257 262 266 265 264 262 258 259 263 266 267
331 331 333 339 343 342 339 339 340 334 325 316 305 294 287 285 283 281 281 281 281 283 287 292 293 293 291 288 283 276 269 258 244 238 240 245 246 245 245 247 247 248 250 250 249 249 248 249 254 257 257 255 255 258 261 261 259 257 252 252 258 263 265
334 334 337 343 346 347 346 344 343 341 333 317 304 297 291 287 285 285 287 286 283 281 280 281 287 293 293 289 284 273 264 260 250 238 234 239 244 244 242 245 248 250 250 245 243 243 243 246 250 253 255 255 255 256 257 256 256 255 252 251 255 261 266
336 332 335 346 350 354 353 348 345 344 340 328 314 305 300 295 289 285 288 291 286 280 276 275 282 289 294 297 291 271 259 257 250 241 232 231 238 241 240 241 248 253 250 242 238 239 241 245 248 249 254 259 260 261 260 257 256 254 251 250 253 257 259
339 331 334 351 356 355 353 349 350 351 349 343 332 321 312 309 304 296 294 295 293 287 275 272 282 288 291 306 308 284 266 256 246 240 234 228 231 236 238 240 247 253 252 248 245 245 248 251 251 253 258 262 264 263 261 259 256 253 250 249 250 252 254
344 337 340 351 351 348 348 351 358 2 357 352 349 342 332 323 315 309 304 298 297 299 285 263 274 288 287 298 310 298 278 260 244 238 235 230 230 234 237 242 250 256 258 258 256 255 256 256 257 258 260 261 262 261 260 259 255 250 249 247 244 247 255
350 346 346 344 339 340 345 350 2 6 356 348 354 354 346 339 327 316 314 303 296 303 295 259 262 288 294 293 304 301 287 263 243 237 236 233 231 233 235 240 250 257 260 260 258 258 260 261 261 261 260 260 261 261 259 256 252 249 248 243 238 242 252
355 351 343 334 328 335 345 344 348 353 346 343 352 352 346 343 336 326 323 313 299 304 303 272 266 286 290 285 293 294 287 271 250 242 239 233 229 230 234 239 247 253 255 256 257 260 264 266 266 264 262 260 259 256 254 254 253 252 247 237 233 237 244
356 350 338 331 327 329 337 342 341 338 333 335 345 347 341 340 339 335 330 320 308 310 309 289 278 280 275 272 274 274 271 267 256 249 248 242 233 232 234 239 245 249 252 255 257 260 264 266 265 262 258 256 255 254 255 256 252 247 241 234 233 236 238
354 346 334 329 329 327 329 337 340 333 327 329 336 340 339 338 338 338 334 324 312 305 298 286 281 276 271 271 274 276 276 272 259 247 244 243 241 241 241 243 245 249 252 255 256 259 261 259 256 255 256 257 258 258 256 252 245 242 241 238 233 234 237
348 342 331 324 324 326 326 330 335 331 326 329 334 335 334 334 336 338 337 330 314 295 284 280 281 279 276 272 267 264 268 270 258 242 236 235 236 240 242 245 247 249 251 253 255 257 258 256 253 254 258 259 257 254 251 247 243 244 246 242 234 233 236
340 335 327 321 320 322 322 324 327 326 323 327 333 332 328 328 330 334 338 339 335 322 307 299 296 294 291 288 276 260 256 257 250 242 236 231 230 232 234 237 241 242 245 250 253 254 256 258 256 253 252 253 252 248 245 244 245 247 246 241 234 231 233
333 328 322 319 319 318 316 317 319 321 323 327 329 327 323 321 324 330 335 339 341 338 333 326 317 304 297 295 287 264 253 254 252 250 246 241 238 238 239 240 241 242 243 247 251 255 259 261 255 248 245 246 245 243 243 244 244 244 244 240 233 230 232
325 323 317 316 317 315 314 314 313 314 317 318 317 317 316 315 318 324 331 338 340 334 325 315 301 294 294 292 282 266 260 262 261 257 252 248 248 250 251 251 251 250 248 248 249 254 257 258 253 246 240 238 238 239 241 241 237 235 238 238 235 234 236
324 321 315 313 314 311 307 306 304 305 307 307 309 310 308 309 314 318 326 337 338 324 314 308 294 287 295 300 294 286 285 283 279 274 268 263 259 258 258 259 258 256 254 251 250 249 248 247 247 245 238 235 236 237 236 234 232 234 237 237 235 235 235
319 312 309 310 310 306 302 301 301 302 304 306 308 308 305 308 314 318 327 338 336 323 319 322 311 297 304 309 306 301 297 292 289 284 278 272 268 265 262 260 258 256 256 255 253 249 242 238 241 244 240 235 235 237 235 231 231 234 234 233 234 235 233
311 307 308 308 306 303 304 305 304 305 307 307 306 307 310 311 311 314 326 338 338 330 329 331 332 334 335 324 319 327 326 323 322 311 296 290 287 280 273 268 263 258 256 255 255 253 245 235 233 240 241 236 233 236 236 233 231 231 229 227 229 231 231
327 323 319 316 311 308 307 307 306 307 307 306 305 309 313 309 304 309 323 335 337 338 339 337 343 13 26 21 16 12 7 2 356 347 337 328 319 307 297 292 284 276 270 263 257 255 250 239 231 232 236 234 231 232 234 233 232 228 224 223 226 226 225
341 333 328 326 325 321 315 311 310 311 309 308 311 317 317 310 303 303 311 325 334 336 340 10 41 38 25 20 12 2 355 348 342 338 333 326 320 314 308 305 300 295 293 286 273 262 251 239 232 229 228 227 226 227 229 232 232 227 221 222 225 226 224
347 344 338 335 334 333 327 319 315 315 314 314 318 323 322 315 305 293 289 306 322 319 312 354 36 29 18 15 10 2 355 348 341 335 329 319 313 309 303 301 301 296 293 293 291 279 256 239 233 228 222 221 223 224 225 228 229 226 222 221 223 224 223
346 348 347 344 344 346 344 337 330 325 322 322 323 324 322 317 308 295 292 305 318 319 312 311 337 14 21 21 18 11 3 355 347 340 333 325 318 312 306 303 301 297 290 289 293 291 268 242 232 224 215 214 218 223 227 229 230 226 222 222 223 224 223